Погода в Елизаветинском

Россия / Ставропольский край     45°00′38″N   43°20′11″E
темп.,
°C
ветер,
м/с
пор.,
м/с
влажн.,
%
обл.,
%
осадки,
мм/ч
давл.,
гПа
погр.,
м
9 марта, вт
вт900:000зюз336859 0.0 101755
03:000зюз236846 0.0 101745
06:000ююз346758 0.0 101765
09:00+3ююз575158 0.0 1016616
12:00+6з694169 0.0 10151938
15:00+5зсз8116672 0.0 10151333
18:00+1зсз5995100 0.8 1018522
21:00+1з4987100 0.9 1020515
10 марта, ср
ср1000:000з5971100 0.1 1020808
03:00−2з4973100 0.1 1022466
06:00−2з487880 0.0 1023536
09:00−1зсз576489 0.1 10251217
12:00+1сз5653100 0.0 10241320
15:00+1сз4551100 0.0 10231194
18:00−1ссв2355100 0.0 102371
21:00−2всв4755100 0.0 1024455
11 марта, чт
чт1100:00−2в5857100 0.0 1022639
03:00−4в6876100 0.1 1022668
06:00−5в6992100 1.4 1021580
09:00−5в71092100 3.2 1022717
12:00−4в81191100 1.7 1021865
15:00−5в81192100 3.3 1021906
18:00−7в81194100 1.6 1022816
21:00−8в71194100 3.0 1023763
12 марта, пт
пт1200:00−8всв71095100 1.5 1024776
03:00−9всв71095100 3.1 1025733
06:00−10всв71095100 1.3 1027680
09:00−9в6993100 2.0 1029706
12:00−8в6887100 0.3 1029730
15:00−6в5879100 0.4 1029835
18:00−8юв368999 0.0 1031170
21:00−11юв349195 0.0 103368
13 марта, сб
сб1300:00−13юв349721 0.0 103249
03:00−14вюв349632 0.0 103265
06:00−14юв349834 0.0 103367
09:00−10юв5109454 0.1 1033384
12:00−7юв699094 0.0 1032556
15:00−6юв699096 0.1 1030602
18:00−6юв6991100 0.1 1029563
21:00−9юв5109797 0.1 1029223